Regional Weather Roundup
Issued by NWS

Home | Current Version | Previous Version | Text Only | Print | Product List | Glossary On
Versions: 1 2 3 4 5 6 7 8 9 10 11 12 13 14 15 16 17 18 19 20 21 22 23 24 25 26 27 28 29 30 31 32 33 34 35 36 37 38 39 40 41 42 43 44 45 46 47 48 49 50
325
ASUS43 KMPX 060710
RWRMN
WEATHER ROUNDUP FOR MINNESOTA
NATIONAL WEATHER SERVICE TWIN CITIES/CHANHASSEN MN
100 AM CST SAT FEB 06 2016


NOTE: "FAIR" INDICATES FEW OR NO CLOUDS BELOW 12,000 FEET WITH NO
SIGNIFICANT WEATHER AND/OR OBSTRUCTIONS TO VISIBILITY. N/A MEANS
CURRENT SKY AND/OR WEATHER CONDITIONS ARE NOT AVAILABLE.

MNZ060>063-068>070-060800-
   Twin Cities Metro

CITY           SKY/WX    TMP DP  RH WIND       PRES   REMARKS
TWIN CITIES    CLOUDY    26  21  81 W9        30.16F WCI  17
ST PAUL        CLOUDY    26  22  84 W7        30.18S WCI  18
CRYSTAL        MOCLDY    26  22  84 SW5       30.14F WCI  20
BLAINE         CLOUDY    27  25  93 SW6       30.14F WCI  20
LAKEVILLE      CLOUDY    25  23  93 SW5       30.16S WCI  19
EDEN PRAIRIE   CLOUDY    26  21  81 SW7       30.16R HAZE    WCI  18
SOUTH ST PAUL  CLOUDY    28  23  82 W5        30.16S WCI  22
LAKE ELMO      CLOUDY    27  25  93 SW5       30.16S WCI  21
$$
MNZ001>005-007-008-013>017-022>024-027-028-060800-
   Northwest Minnesota

CITY           SKY/WX    TMP DP  RH WIND       PRES   REMARKS
BEMIDJI        CLOUDY    16  15  94 CALM      30.03F
HALLOCK        CLOUDY    18  16  93 S8        29.99F WCI   7
ROSEAU         MOCLDY    16  12  86 S6        30.01F WCI   7
WARROAD        CLOUDY    18  12  79 S3        30.01F
THIEF RVR FALL CLOUDY    16  14  93 S7        30.03S WCI   6
CROOKSTON      CLOUDY    19  18  93 S8        30.04F WCI   9
FOSSTON        CLOUDY    16  12  86 S6        30.03F FOG     WCI   7
DETROIT LAKES  CLOUDY    21  21 100 S5        30.06F FOG     WCI  15
MOORHEAD       CLOUDY    14  12  92 S7        30.08F WCI   4
PARK RAPIDS    CLOUDY    20  18  92 SW7       30.05F FOG     WCI  11
MAHNOMEN       FAIR      18  17  93 S6        30.03F WCI  10
$$
MNZ006-009>011-018-025>026-060800-
   North Central Minnesota

CITY           SKY/WX    TMP DP  RH WIND       PRES   REMARKS
BAUDETTE       CLOUDY    19  14  81 S3        30.01F
FLAG ISLAND    CLOUDY    18  16  93 CALM      30.01F
INTL FALLS     CLOUDY    20  15  81 SW5       30.02F WCI  13
WASKISH        CLOUDY    18  16  93 CALM      30.03F
LONGVILLE      CLOUDY    19  18  93 SW5       30.07S WCI  13
GRAND RAPIDS   CLOUDY    18  14  86 CALM      30.06S
CRANE LAKE     CLOUDY    19  16  86 SW2       30.05S
ORR            CLOUDY    19  16  86 CALM      30.01S
COOK           CLOUDY    19  18  93 W5        30.04S WCI  13
WALKER         FAIR      18  16  93 S3        30.04F
$$
MNZ012-019>021-037-060800-
   Northeast Minnesota

CITY           SKY/WX    TMP DP  RH WIND       PRES   REMARKS
DULUTH         CLOUDY    21  14  74 W10       30.04S WCI  10
ELY            CLOUDY    21  16  79 W6        30.01S WCI  14
HIBBING        CLOUDY    20  16  84 W5        30.04S WCI  13
EVELETH        CLOUDY    23  19  86 W10       30.05R WCI  12
DULUTH HARBOR  CLOUDY    25  18  74 SW12      30.10S WCI  14
TWO HARBORS    CLOUDY    21  14  73 SW5       30.03S WCI  15
SILVER BAY     PTCLDY    19  14  79 SW3       30.02S
GRAND MARAIS     N/A     24  16  71 W5        30.04S WCI  18
G MARAIS ARPRT CLOUDY    19  12  73 W6        29.96S WCI  11
$$
MNZ029>031-032-039>041-046>048-054>057-064-060800-
   West Central Minnesota

CITY           SKY/WX    TMP DP  RH WIND       PRES   REMARKS
FERGUS FALLS   CLOUDY    16  12  86 S3        30.13F
WHEATON        PTCLDY    21  19  93 S8        30.12F WCI  12
MORRIS         SNOW      10   9  92 S3        30.11F VSB<1/4
ALEXANDRIA     FOG       21  20  96 S6        30.10F VSB 1/4 WCI  13
ELBOW LAKE     FAIR      12  10  92 E5        30.11F WCI   4
WADENA         CLOUDY    19  18  93 SW6       30.08F FOG     WCI  11
GLENWOOD       FOG       23  21  93 SW6       30.11F VSB 1/4 WCI  16
APPLETON       CLOUDY    16  14  93 CALM      30.14F
BENSON         CLEAR     16  12  86 CALM      30.13F FOG
ORTONVILLE     CLOUDY    18  16  93 SW5       30.13F WCI  11
MADISON        CLOUDY    18  16  93 SW6       30.15F FOG     WCI   9
WILLMAR        FAIR      23  21  93 SW6       30.15F WCI  16
$$
MNZ033>034-036-042>043-049>051-058-059-060800-
   Central Minnesota

CITY           SKY/WX    TMP DP  RH WIND       PRES   REMARKS
ST CLOUD       CLOUDY    24  20  84 W9        30.12F WCI  14
SAUK CENTRE    CLOUDY    24  23  96 W8        30.11F WCI  15
PAYNESVILLE    CLOUDY    26  24  91 W12       30.14F WCI  15
AITKIN         CLOUDY    25  18  74 SW5       30.07S WCI  19
PINE RIVER     CLOUDY    19  18  93 CALM      30.11S
BRAINERD       CLOUDY    21  17  84 W8        30.09F WCI  11
STAPLES        CLOUDY    19  19 100 SW3       30.09F FOG
LONG PRAIRIE   CLOUDY    21  21 100 SW6       30.11F WCI  14
LITTLE FALLS   CLOUDY    23  19  86 W3        30.12F
LITCHFIELD     CLOUDY    27  25  93 W6        30.15F WCI  20
BUFFALO        CLOUDY    24  22  91 SW5       30.16S WCI  18
MAPLE LAKE     CLOUDY    26  24  93 W3        30.15F
$$
MNZ037-044-045-052-053-060800-
   East Central Minnesota

CITY           SKY/WX    TMP DP  RH WIND       PRES   REMARKS
PRINCETON      CLOUDY    27  21  80 SW5       30.12F WCI  21
MORA           CLOUDY    25  21  86 SW3       30.13F
CAMBRIDGE      CLOUDY    27  19  74 CALM      30.11F
RUSH CITY      CLOUDY    25  21  86 SW7       30.13F WCI  17
MOOSE LAKE     CLOUDY    25  18  74 SW3       30.07F
HINCKLEY       CLOUDY    27  23  86 SW6       30.11F WCI  20
CLOQUET        CLOUDY    21  16  79 SW6       30.06S WCI  14
MCGREGOR       CLOUDY    25  21  86 SW3       30.08F
$$
MNZ071>073-080-081-089-090-097-098-060800-
   Southwest Minnesota

CITY           SKY/WX    TMP DP  RH WIND       PRES   REMARKS
MONTEVIDEO     CLOUDY    18  16  93 W8        30.16F WCI   7
GRANITE FALLS  PTCLDY    19  17  93 SW6       30.17F WCI  10
CANBY          CLEAR     25  23  91 SW13      30.15F WCI  13
MARSHALL       CLEAR     21  19  92 W10       30.16F WCI  10
REDWOOD FALLS  CLEAR     22  19  89 SW9       30.17S WCI  12
OLIVIA         CLEAR     21  18  86 SW6       30.16F WCI  14
PIPESTONE        N/A     27  19  74 W6        30.16F WCI  20
WINDOM         CLEAR     19  18  93 W8        30.17S FOG     WCI   9
WORTHINGTON    CLOUDY    18  14  86 W9        30.18S VSB 1/2 WCI   6
JACKSON        PTCLDY    25  21  86 W6        30.18S FOG     WCI  18
TRACY          MOCLDY    20  19  95 SW8       30.16F FOG     WCI  11
SLAYTON        SNOW      23  23 100 W9        30.16F VSB 1/4 WCI  13
$$
MNZ065>067-074>077-082>085-091>093-060800-
   South Central Minnesota

CITY           SKY/WX    TMP DP  RH WIND       PRES   REMARKS
MANKATO        CLOUDY    27  23  86 W10       30.18S WCI  17
NEW ULM        CLOUDY    25  21  86 W6        30.18S WCI  18
ST JAMES       MOCLDY    27  25  93 W5        30.20R WCI  21
FAIRMONT       CLOUDY    27  21  80 W8        30.18S WCI  18
GLENCOE        CLOUDY    25  25  99 W3        30.16S
FARIBAULT      CLOUDY    27  25  93 S6        30.17S WCI  20
OWATONNA       MOCLDY    27  23  86 SW10      30.16F WCI  17
WASECA         CLOUDY    27  23  86 SW9       30.18F FOG     WCI  17
ALBERT LEA     CLOUDY    27  25  93 SW5       30.17F FOG     WCI  21
$$
MNZ078>079-086>088-094>096-060800-
   Southeast Minnesota

CITY           SKY/WX    TMP DP  RH WIND       PRES   REMARKS
ROCHESTER      CLOUDY    24  22  91 SW15      30.16F FOG     WCI  11
RED WING       CLOUDY    27  21  80 SW7       30.17F WCI  19
STANTON        CLOUDY    28  24  87 SW7       30.15F FOG     WCI  20
DODGE CENTER   CLOUDY    25  23  93 SW12      30.16F FOG     WCI  14
WINONA         CLOUDY    28  23  80 SW5       30.21F WCI  23
AUSTIN         FOG       25  25 100 SW7       30.18F VSB 1   WCI  17
PRESTON        CLOUDY    23  22  95 SW10      30.19F FOG     WCI  12
$$
ABBREVIATIONS USED IN REMARKS
   TC - TEMPERATURES IN CELSIUS
  WCI - WIND CHILL INDEX
   HX - HEAT INDEX
  VSB - VISIBILITY
$$




USA.gov is the U.S. government's official web portal to all federal, state and local government web resources and services.